Lucas Tedeschi fue el más veloz en la segunda tanda de entrenamientos de la Clase 2 del Turismo Nacional, que se llevó a cabo en San Nicolás, en el marco de la segunda fecha de la temporada. El piloto de Las Rosas logró un registro de 1:37.479 con el Toyota Etios que alista el Giacone Competición, aunque no pudo mejorar el tiempo que había marcado Pablo Ortega en el ensayo inicial, de cara a la primera clasificación.

En el trazado bonaerense, el segundo puesto lo ocupó Lucas Yerobi, a 41 centésimas; mientras que Gerónimo Núñez culminó en la tercera colocación, a 52 centésimas de la punta.

Por su parte, los diez primeros lugares los completaron Emanuel Abdala, Marco Veronesi, Christian Bodrato Mionetto, Marcos Fernández, Damián Kirstein, Tomás Vitar y Ortega.

    2do. Entrenamiento TN Clase 2 – San Nicolás    

Pos. Piloto Marca Vtas. Tiempo Dif.
1 4 LUCAS TEDESCHI TOYOTA ETIOS 5 1:37.479
2 3 GERONIMO NUÑEZ TOYOTA ETIOS 7 1:37.705 0.226
3 84 LUCAS YEROBI FIESTA KINETIC 8 1:37.891 0.412
4 2 EMANUEL ABDALA FIESTA KINETIC 7 1:38.022 0.543
5 79 MARCO VERONESI TOYOTA ETIOS 9 1:38.114 0.635
6 113 CHRISTIAN BODRATO MIONETTO TOYOTA ETIOS 3 1:38.166 0.687
7 50 MAXIMILIANO FONTANA VW TREND 8 1:38.179 0.700
8 22 MARCOS FERNANDEZ NISSAN MARCH 7 1:38.186 0.707
9 89 RENZO BLOTTA TOYOTA ETIOS 9 1:38.193 0.714
10 23 DAMIAN KIRSTEIN PEUGEOT 208 8 1:38.199 0.720
11 9 CHRISTIAN ABDALA TOYOTA ETIOS 9 1:38.249 0.770
12 35 SERGIO FERNANDEZ NISSAN MARCH 8 1:38.254 0.775
13 140 TOMAS VITAR RENAULT CLIO 5 1:38.321 0.842
14 114 PABLO ORTEGA FIAT ARGO 4 1:38.329 0.850
15 100 MAURO SALVI TOYOTA ETIOS 3 1:38.357 0.878
16 15 MIGUEL CIAURRO VW TREND 8 1:38.476 0.997
17 61 FACUNDO BUSTOS VW TREND 3 1:38.504 1.025
18 16 DIEGO LEANEZ TOYOTA ETIOS 9 1:38.523 1.044
19 199 JUAN IGNACIO TORRES CHEVROLET CORSA 7 1:38.611 1.132
20 7 FACUNDO LEANEZ TOYOTA ETIOS 5 1:38.787 1.308
21 8 SEBASTIAN PEREZ CHEVROLET ONIX 8 1:38.821 1.342
22 56 GASTON GRASSO TOYOTA ETIOS 5 1:38.829 1.350
23 121 NAZARENO BEGUIRISTAIN FIAT ARGO 3 1:38.921 1.442
24 14 IGNACIO PROCACITTO VW TREND 4 1:38.972 1.493
25 116 ALEJANDRO TORRISI NISSAN MARCH 4 1:39.088 1.609
26 10 ALEJO BORGIANI VW TREND 5 1:39.099 1.620
27 30 VALDERREY ALEJANDRO TOYOTA ETIOS 5 1:39.162 1.683
28 21 FERNANDO GOMEZ FREDES NISSAN MARCH 7 1:39.193 1.714
29 28 MATEO NUÑEZ NISSAN MARCH 4 1:39.208 1.729
30 55 MARCELO GUEVARA NISSAN MARCH 7 1:39.276 1.797
31 80 JUAN IGNACIO CANELA FIESTA KINETIC 4 1:39.287 1.808
32 75 JOSE LUIS ARRATE TOYOTA ETIOS 4 1:39.421 1.942
33 151 DIEGO CHEVALLEY TOYOTA ETIOS 7 1:39.467 1.988
34 98 ALEX CONCI FIESTA KINETIC 9 1:39.593 2.114
35 37 GABRIEL SCORDIA FIAT ARGO 4 1:39.668 2.189
36 154 FACUNDO ROTONDO FIESTA KINETIC 5 1:40.336 2.857
37 36 SANDRO ABDALA RENAULT CLIO 5 1:40.559 3.080
38 48 RICARDO SALE FIESTA KINETIC 4 1:41.239 3.760
Sin tiempos Autos Nro. 26 y 125

S.B

Compartir